DLH448 YMLT-YMML

Flight info

Callsign DLH448
Flight time 1h 9m
Altitude 36000
Route LT H215 RAZZI W687 ML
Aircraft A343/H-SDE2E3FGHIJ4J5M1RWXY/LB1D1

Departure

Time 2026-04-14 10:35
Airport Launceston Airport (YMLT)

Arrival

Time 2026-04-14 11:44
Airport Melbourne Airport (YMML)
Time Latitude Longitude Altitude Speed Heading
2026-04-14 10:24 -41.54827 147.21030 586 ft 0 kts 324°
2026-04-14 10:31 -41.54826 147.21029 586 ft 1 kts 324°
2026-04-14 10:31 -41.54814 147.21020 586 ft 1 kts 339°
2026-04-14 10:31 -41.54798 147.21023 586 ft 5 kts 16°
2026-04-14 10:31 -41.54786 147.21086 588 ft 9 kts 97°
2026-04-14 10:32 -41.54820 147.21168 588 ft 11 kts 131°
2026-04-14 10:32 -41.54893 147.21242 587 ft 17 kts 147°
2026-04-14 10:32 -41.55021 147.21348 588 ft 26 kts 148°
2026-04-14 10:32 -41.55183 147.21485 590 ft 25 kts 145°
2026-04-14 10:33 -41.55213 147.21634 594 ft 13 kts 61°
2026-04-14 10:33 -41.55165 147.21657 596 ft 1 kts 337°
2026-04-14 10:33 -41.55138 147.21640 596 ft 0 kts 332°
2026-04-14 10:34 -41.54943 147.21484 594 ft 74 kts 327°
2026-04-14 10:34 -41.54289 147.20915 600 ft 148 kts 327°
2026-04-14 10:35 -41.53304 147.20110 1082 ft 177 kts 331°
2026-04-14 10:35 -41.52174 147.19264 1960 ft 196 kts 335°
2026-04-14 10:35 -41.50791 147.18520 2678 ft 234 kts 334°
2026-04-14 10:35 -41.49218 147.17670 3543 ft 251 kts 333°
2026-04-14 10:36 -41.47589 147.16800 4611 ft 254 kts 332°
2026-04-14 10:36 -41.45956 147.15941 5811 ft 250 kts 329°
2026-04-14 10:36 -41.44347 147.15083 6956 ft 248 kts 328°
2026-04-14 10:36 -41.42729 147.14211 7923 ft 253 kts 328°
2026-04-14 10:37 -41.41080 147.13320 8838 ft 259 kts 329°
2026-04-14 10:37 -41.39397 147.12412 9766 ft 263 kts 329°
2026-04-14 10:37 -41.37679 147.11486 10527 ft 273 kts 329°
2026-04-14 10:37 -41.35871 147.10501 10858 ft 296 kts 329°
2026-04-14 10:38 -41.33902 147.09433 11252 ft 314 kts 329°
2026-04-14 10:38 -41.31840 147.08333 11905 ft 323 kts 329°
2026-04-14 10:38 -41.29732 147.07216 12668 ft 329 kts 329°
2026-04-14 10:38 -41.27590 147.06076 13444 ft 334 kts 329°
2026-04-14 10:39 -41.25415 147.04918 14176 ft 339 kts 329°
2026-04-14 10:39 -41.23204 147.03744 14858 ft 345 kts 329°
2026-04-14 10:39 -41.20962 147.02550 15563 ft 349 kts 329°
2026-04-14 10:39 -41.18692 147.01341 16256 ft 354 kts 329°
2026-04-14 10:40 -41.16388 147.00115 16957 ft 359 kts 329°
2026-04-14 10:40 -41.14061 146.98877 17669 ft 363 kts 329°
2026-04-14 10:40 -41.11708 146.97627 18380 ft 367 kts 330°
2026-04-14 10:40 -41.09322 146.96360 19017 ft 370 kts 330°
2026-04-14 10:41 -41.06925 146.95089 19668 ft 373 kts 330°
2026-04-14 10:41 -41.04503 146.93805 20315 ft 376 kts 330°
2026-04-14 10:41 -41.02065 146.92513 20917 ft 379 kts 330°
2026-04-14 10:41 -40.99605 146.91211 21528 ft 383 kts 330°
2026-04-14 10:42 -40.97122 146.89897 22148 ft 385 kts 330°
2026-04-14 10:42 -40.94622 146.88577 22767 ft 388 kts 330°
2026-04-14 10:42 -40.92107 146.87248 23353 ft 391 kts 330°
2026-04-14 10:42 -40.89567 146.85908 23860 ft 394 kts 330°
2026-04-14 10:43 -40.87007 146.84557 24335 ft 397 kts 330°
2026-04-14 10:43 -40.84470 146.83221 24818 ft 399 kts 330°
2026-04-14 10:43 -40.81887 146.81862 25281 ft 401 kts 330°
2026-04-14 10:43 -40.79286 146.80494 25728 ft 404 kts 330°
2026-04-14 10:44 -40.76672 146.79120 26197 ft 406 kts 330°
2026-04-14 10:44 -40.74043 146.77739 26644 ft 408 kts 330°
2026-04-14 10:44 -40.71391 146.76348 27081 ft 410 kts 330°
2026-04-14 10:44 -40.68731 146.74954 27519 ft 413 kts 330°
2026-04-14 10:45 -40.66054 146.73552 27933 ft 415 kts 330°
2026-04-14 10:45 -40.63369 146.72147 28340 ft 417 kts 330°
2026-04-14 10:45 -40.60664 146.70732 28723 ft 419 kts 330°
2026-04-14 10:45 -40.57943 146.69310 29102 ft 422 kts 330°
2026-04-14 10:46 -40.55210 146.67884 29492 ft 424 kts 330°
2026-04-14 10:46 -40.52462 146.66451 29876 ft 426 kts 330°
2026-04-14 10:46 -40.49702 146.65013 30225 ft 428 kts 330°
2026-04-14 10:46 -40.46920 146.63565 30543 ft 430 kts 330°
2026-04-14 10:47 -40.44130 146.62114 30844 ft 432 kts 330°
2026-04-14 10:47 -40.41324 146.60657 31136 ft 434 kts 330°
2026-04-14 10:47 -40.38508 146.59194 31408 ft 436 kts 330°
2026-04-14 10:47 -40.35715 146.57746 31689 ft 438 kts 330°
2026-04-14 10:48 -40.32836 146.56254 31998 ft 440 kts 330°
2026-04-14 10:48 -40.29988 146.54780 32355 ft 440 kts 330°
2026-04-14 10:48 -40.27181 146.53331 32773 ft 438 kts 330°
2026-04-14 10:48 -40.24351 146.51871 33193 ft 436 kts 330°
2026-04-14 10:49 -40.21533 146.50417 33606 ft 435 kts 329°
2026-04-14 10:49 -40.18719 146.48965 33984 ft 433 kts 329°
2026-04-14 10:49 -40.15921 146.47524 34349 ft 432 kts 329°
2026-04-14 10:49 -40.13132 146.46088 34677 ft 431 kts 329°
2026-04-14 10:50 -40.10348 146.44654 34978 ft 430 kts 329°
2026-04-14 10:50 -40.07563 146.43222 35284 ft 429 kts 329°
2026-04-14 10:50 -40.05723 146.42277 35489 ft 429 kts 329°
2026-04-14 10:50 -40.02947 146.40852 35804 ft 428 kts 329°
2026-04-14 10:51 -39.99237 146.38949 36059 ft 429 kts 329°
2026-04-14 10:51 -39.94667 146.36607 36078 ft 420 kts 329°
2026-04-14 10:52 -39.89245 146.33817 36079 ft 418 kts 329°
2026-04-14 10:52 -39.83834 146.31028 36081 ft 418 kts 329°
2026-04-14 10:53 -39.78423 146.28249 36073 ft 418 kts 329°
2026-04-14 10:53 -39.73016 146.25539 36066 ft 424 kts 334°
2026-04-14 10:53 -39.70038 146.24952 36090 ft 444 kts 351°
2026-04-14 10:54 -39.66919 146.25524 36092 ft 465 kts
2026-04-14 10:54 -39.63912 146.27264 36095 ft 484 kts 24°
2026-04-14 10:54 -39.61261 146.30060 36099 ft 500 kts 39°
2026-04-14 10:55 -39.56608 146.36877 36089 ft 507 kts 43°
2026-04-14 10:55 -39.52033 146.43851 36094 ft 508 kts 43°
2026-04-14 10:56 -39.47431 146.50801 36099 ft 507 kts 42°
2026-04-14 10:56 -39.44868 146.53826 36085 ft 493 kts 29°
2026-04-14 10:56 -39.41960 146.56003 36097 ft 474 kts 12°
2026-04-14 10:56 -39.38850 146.57051 36100 ft 451 kts 355°
2026-04-14 10:57 -39.35839 146.56933 36107 ft 429 kts 339°
2026-04-14 10:57 -39.33097 146.55715 36097 ft 407 kts 322°
2026-04-14 10:57 -39.30822 146.53648 36097 ft 398 kts 314°
2026-04-14 10:58 -39.26303 146.49403 36111 ft 403 kts 316°
2026-04-14 10:58 -39.21779 146.45129 36110 ft 402 kts 316°
2026-04-14 10:59 -39.17294 146.40821 36118 ft 402 kts 315°
2026-04-14 10:59 -39.12818 146.36503 36091 ft 401 kts 315°
2026-04-14 10:59 -39.10572 146.34331 35850 ft 407 kts 315°
2026-04-14 11:00 -39.08293 146.32125 35595 ft 412 kts 316°
2026-04-14 11:00 -39.05996 146.29910 35350 ft 413 kts 316°
2026-04-14 11:00 -39.03686 146.27687 35104 ft 414 kts 316°
2026-04-14 11:00 -39.01379 146.25468 34869 ft 415 kts 316°
2026-04-14 11:01 -38.99065 146.23246 34644 ft 416 kts 316°
2026-04-14 11:01 -38.96777 146.21048 34387 ft 420 kts 316°
2026-04-14 11:01 -38.94402 146.18758 34114 ft 434 kts 316°
2026-04-14 11:02 -38.89521 146.14077 33602 ft 434 kts 317°
2026-04-14 11:02 -38.87085 146.11746 32502 ft 441 kts 317°
2026-04-14 11:02 -38.84599 146.09361 31395 ft 451 kts 317°
2026-04-14 11:02 -38.82062 146.06933 30889 ft 458 kts 317°
2026-04-14 11:03 -38.79496 146.04482 30585 ft 461 kts 317°
2026-04-14 11:03 -38.76933 146.02041 29936 ft 457 kts 318°
2026-04-14 11:03 -38.74375 145.99604 29164 ft 459 kts 318°
2026-04-14 11:03 -38.71817 145.97168 28615 ft 457 kts 318°
2026-04-14 11:04 -38.69279 145.94756 28052 ft 453 kts 318°
2026-04-14 11:04 -38.66752 145.92352 27532 ft 452 kts 318°
2026-04-14 11:04 -38.64238 145.89964 26964 ft 448 kts 318°
2026-04-14 11:04 -38.61737 145.87590 26441 ft 446 kts 318°
2026-04-14 11:05 -38.59263 145.85244 25885 ft 442 kts 318°
2026-04-14 11:05 -38.56797 145.82906 25353 ft 441 kts 318°
2026-04-14 11:05 -38.54349 145.80588 24789 ft 436 kts 318°
2026-04-14 11:05 -38.51905 145.78276 24261 ft 436 kts 318°
2026-04-14 11:06 -38.49477 145.75980 23702 ft 434 kts 318°
2026-04-14 11:06 -38.47066 145.73705 23089 ft 428 kts 318°
2026-04-14 11:06 -38.44679 145.71452 22538 ft 427 kts 318°
2026-04-14 11:06 -38.42303 145.69211 22004 ft 422 kts 318°
2026-04-14 11:07 -38.39976 145.67017 21478 ft 421 kts 319°
2026-04-14 11:07 -38.37625 145.64801 20959 ft 418 kts 319°
2026-04-14 11:07 -38.35298 145.62614 20433 ft 415 kts 319°
2026-04-14 11:07 -38.32980 145.60435 19936 ft 412 kts 319°
2026-04-14 11:08 -38.30680 145.58276 19394 ft 410 kts 319°
2026-04-14 11:08 -38.28390 145.56128 18896 ft 407 kts 319°
2026-04-14 11:08 -38.26119 145.53999 18339 ft 405 kts 319°
2026-04-14 11:08 -38.23862 145.51884 17780 ft 400 kts 319°
2026-04-14 11:09 -38.21617 145.49783 17274 ft 400 kts 319°
2026-04-14 11:09 -38.19391 145.47701 16763 ft 395 kts 319°
2026-04-14 11:09 -38.17180 145.45634 16278 ft 395 kts 319°
2026-04-14 11:10 -38.12795 145.41539 15243 ft 388 kts 319°
2026-04-14 11:10 -38.10632 145.39522 14725 ft 386 kts 319°
2026-04-14 11:10 -38.08467 145.37504 14245 ft 383 kts 319°
2026-04-14 11:10 -38.06324 145.35509 13686 ft 381 kts 319°
2026-04-14 11:11 -38.04196 145.33530 13162 ft 377 kts 319°
2026-04-14 11:11 -38.02064 145.31576 12678 ft 376 kts 322°
2026-04-14 11:11 -37.99827 145.29859 12061 ft 376 kts 326°
2026-04-14 11:11 -37.97549 145.28261 11488 ft 373 kts 327°
2026-04-14 11:12 -37.95280 145.26685 10954 ft 370 kts 327°
2026-04-14 11:12 -37.93039 145.25126 10787 ft 369 kts 327°
2026-04-14 11:12 -37.90786 145.23554 10733 ft 370 kts 327°
2026-04-14 11:12 -37.88561 145.22005 10485 ft 361 kts 327°
2026-04-14 11:13 -37.86343 145.20458 10322 ft 367 kts 327°
2026-04-14 11:13 -37.84133 145.18919 9975 ft 359 kts 327°
2026-04-14 11:13 -37.81930 145.17432 9202 ft 360 kts 329°
2026-04-14 11:13 -37.79719 145.15965 8722 ft 355 kts 329°
2026-04-14 11:14 -37.77575 145.14548 8467 ft 341 kts 329°
2026-04-14 11:14 -37.75500 145.13173 8157 ft 331 kts 329°
2026-04-14 11:14 -37.73499 145.11845 7962 ft 318 kts 329°
2026-04-14 11:14 -37.71575 145.10585 7771 ft 302 kts 330°
2026-04-14 11:15 -37.69746 145.09489 7360 ft 283 kts 332°
2026-04-14 11:15 -37.67976 145.08453 6857 ft 280 kts 332°
2026-04-14 11:15 -37.66226 145.07423 6667 ft 273 kts 332°
2026-04-14 11:15 -37.64534 145.06424 6539 ft 264 kts 332°
2026-04-14 11:16 -37.62902 145.05459 6435 ft 255 kts 332°
2026-04-14 11:16 -37.61330 145.04528 6217 ft 252 kts 332°
2026-04-14 11:16 -37.59745 145.03598 6022 ft 250 kts 332°
2026-04-14 11:16 -37.58084 145.02901 5999 ft 256 kts 352°
2026-04-14 11:17 -37.56324 145.03210 6002 ft 260 kts 21°
2026-04-14 11:17 -37.54872 145.04556 6004 ft 261 kts 51°
2026-04-14 11:17 -37.54121 145.06563 6002 ft 252 kts 82°
2026-04-14 11:17 -37.54120 145.08742 6006 ft 248 kts 99°
2026-04-14 11:18 -37.54369 145.10903 6001 ft 249 kts 101°
2026-04-14 11:18 -37.54652 145.13057 5999 ft 249 kts 102°
2026-04-14 11:18 -37.54938 145.15198 5799 ft 247 kts 102°
2026-04-14 11:18 -37.55224 145.17336 5524 ft 248 kts 102°
2026-04-14 11:19 -37.55472 145.19482 5255 ft 248 kts 94°
2026-04-14 11:19 -37.55101 145.21580 5025 ft 247 kts 61°
2026-04-14 11:19 -37.53968 145.23117 4908 ft 237 kts 28°
2026-04-14 11:19 -37.52472 145.23749 4846 ft 224 kts
2026-04-14 11:20 -37.50994 145.23773 4777 ft 203 kts 340°
2026-04-14 11:20 -37.49923 145.22829 4379 ft 182 kts 298°
2026-04-14 11:20 -37.49454 145.21420 4034 ft 169 kts 291°
2026-04-14 11:20 -37.49226 145.20021 3679 ft 161 kts 269°
2026-04-14 11:21 -37.49263 145.18635 3296 ft 156 kts 265°
2026-04-14 11:21 -37.49354 145.17297 3030 ft 152 kts 264°
2026-04-14 11:21 -37.49458 145.15966 2998 ft 154 kts 263°
2026-04-14 11:21 -37.49566 145.14623 3007 ft 154 kts 263°
2026-04-14 11:22 -37.49677 145.13284 3010 ft 154 kts 264°
2026-04-14 11:22 -37.49788 145.11948 2996 ft 154 kts 263°
2026-04-14 11:22 -37.49899 145.10609 3005 ft 154 kts 263°
2026-04-14 11:22 -37.50010 145.09270 3012 ft 154 kts 263°
2026-04-14 11:23 -37.50122 145.07932 2998 ft 154 kts 263°
2026-04-14 11:23 -37.50233 145.06601 2987 ft 149 kts 263°
2026-04-14 11:23 -37.50334 145.05378 3002 ft 136 kts 263°
2026-04-14 11:23 -37.50432 145.04196 3013 ft 136 kts 263°
2026-04-14 11:24 -37.50531 145.03014 2994 ft 136 kts 263°
2026-04-14 11:24 -37.50630 145.01830 3004 ft 136 kts 263°
2026-04-14 11:24 -37.50729 145.00644 3003 ft 137 kts 263°
2026-04-14 11:24 -37.50834 144.99389 3005 ft 147 kts 263°
2026-04-14 11:25 -37.50936 144.98150 2997 ft 138 kts 263°
2026-04-14 11:25 -37.51034 144.96959 3009 ft 136 kts 263°
2026-04-14 11:25 -37.51199 144.95793 3013 ft 138 kts 253°
2026-04-14 11:25 -37.51522 144.94628 3008 ft 142 kts 250°
2026-04-14 11:26 -37.51867 144.93457 3008 ft 144 kts 250°
2026-04-14 11:26 -37.52236 144.92207 3008 ft 159 kts 250°
2026-04-14 11:26 -37.52625 144.90882 3004 ft 163 kts 250°
2026-04-14 11:26 -37.53020 144.89539 3007 ft 164 kts 250°
2026-04-14 11:27 -37.53416 144.88192 2994 ft 164 kts 250°
2026-04-14 11:27 -37.53821 144.86850 2987 ft 164 kts 248°
2026-04-14 11:27 -37.54335 144.85589 2834 ft 164 kts 239°
2026-04-14 11:27 -37.55051 144.84444 2571 ft 164 kts 228°
2026-04-14 11:28 -37.55913 144.83535 2363 ft 165 kts 217°
2026-04-14 11:28 -37.56930 144.82849 2146 ft 167 kts 206°
2026-04-14 11:28 -37.58055 144.82434 1917 ft 171 kts 194°
2026-04-14 11:28 -37.59245 144.82325 1697 ft 173 kts 181°
2026-04-14 11:29 -37.60445 144.82490 1458 ft 174 kts 174°
2026-04-14 11:29 -37.61635 144.82735 1230 ft 171 kts 172°
2026-04-14 11:29 -37.62756 144.82970 1057 ft 155 kts 173°
2026-04-14 11:29 -37.63931 144.83206 1263 ft 191 kts 173°
2026-04-14 11:30 -37.65375 144.83497 1773 ft 226 kts 174°
2026-04-14 11:30 -37.66967 144.83858 2493 ft 238 kts 173°
2026-04-14 11:30 -37.68545 144.84246 2872 ft 227 kts 173°
2026-04-14 11:30 -37.70079 144.84637 2990 ft 224 kts 173°
2026-04-14 11:31 -37.71603 144.85028 3005 ft 223 kts 173°
2026-04-14 11:31 -37.73084 144.85614 3006 ft 228 kts 154°
2026-04-14 11:31 -37.74241 144.87020 3011 ft 237 kts 127°
2026-04-14 11:31 -37.75115 144.88808 3002 ft 241 kts 122°
2026-04-14 11:32 -37.75939 144.90654 3012 ft 241 kts 122°
2026-04-14 11:32 -37.76756 144.92506 2997 ft 241 kts 122°
2026-04-14 11:32 -37.77561 144.94336 2999 ft 242 kts 122°
2026-04-14 11:32 -37.78377 144.96201 2993 ft 242 kts 122°
2026-04-14 11:33 -37.79196 144.98070 2994 ft 243 kts 122°
2026-04-14 11:33 -37.80013 144.99937 2998 ft 243 kts 122°
2026-04-14 11:33 -37.80836 145.01810 3002 ft 243 kts 122°
2026-04-14 11:34 -37.82351 145.05510 2984 ft 227 kts 105°
2026-04-14 11:34 -37.82307 145.07425 2994 ft 214 kts 69°
2026-04-14 11:34 -37.81663 145.09049 2993 ft 202 kts 56°
2026-04-14 11:34 -37.80900 145.10538 2988 ft 202 kts 54°
2026-04-14 11:35 -37.79958 145.11829 2988 ft 198 kts 27°
2026-04-14 11:35 -37.78707 145.12457 2834 ft 192 kts 10°
2026-04-14 11:35 -37.77424 145.12837 2583 ft 192 kts
2026-04-14 11:35 -37.76118 145.13177 2511 ft 191 kts
2026-04-14 11:36 -37.74828 145.13508 2523 ft 188 kts
2026-04-14 11:36 -37.73539 145.13835 2500 ft 190 kts
2026-04-14 11:36 -37.72259 145.13739 2498 ft 182 kts 333°
2026-04-14 11:36 -37.71336 145.12841 2511 ft 157 kts 307°
2026-04-14 11:37 -37.70672 145.11798 2510 ft 148 kts 303°
2026-04-14 11:37 -37.70080 145.10799 2510 ft 138 kts 302°
2026-04-14 11:37 -37.69699 145.10149 2505 ft 136 kts 302°
2026-04-14 11:37 -37.68960 145.08877 2505 ft 136 kts 302°
2026-04-14 11:38 -37.68590 145.08237 2501 ft 136 kts 302°
2026-04-14 11:38 -37.68023 145.07260 2500 ft 136 kts 302°
2026-04-14 11:38 -37.67623 145.06195 2502 ft 133 kts 283°
2026-04-14 11:38 -37.67453 145.05066 2502 ft 131 kts 275°
2026-04-14 11:39 -37.67360 145.03971 2487 ft 121 kts 274°
2026-04-14 11:39 -37.67283 145.02923 2495 ft 120 kts 272°
2026-04-14 11:39 -37.67223 145.01873 2506 ft 120 kts 272°
2026-04-14 11:39 -37.67161 145.00824 2500 ft 120 kts 272°
2026-04-14 11:40 -37.67097 144.99777 2494 ft 120 kts 272°
2026-04-14 11:40 -37.67034 144.98726 2499 ft 120 kts 272°
2026-04-14 11:40 -37.66971 144.97669 2450 ft 122 kts 272°
2026-04-14 11:40 -37.66909 144.96606 2290 ft 121 kts 272°
2026-04-14 11:41 -37.66848 144.95541 2129 ft 122 kts 272°
2026-04-14 11:41 -37.66786 144.94479 1964 ft 122 kts 272°
2026-04-14 11:41 -37.66724 144.93412 1797 ft 122 kts 273°
2026-04-14 11:41 -37.66663 144.92348 1633 ft 122 kts 273°
2026-04-14 11:42 -37.66600 144.91272 1459 ft 124 kts 273°
2026-04-14 11:42 -37.66537 144.90181 1293 ft 125 kts 274°
2026-04-14 11:42 -37.66473 144.89082 1110 ft 127 kts 274°
2026-04-14 11:42 -37.66409 144.87971 947 ft 127 kts 274°
2026-04-14 11:43 -37.66344 144.86850 776 ft 128 kts 274°
2026-04-14 11:43 -37.66279 144.85737 613 ft 127 kts 274°
2026-04-14 11:43 -37.66215 144.84625 431 ft 127 kts 274°
2026-04-14 11:43 -37.66161 144.83633 420 ft 94 kts 274°
2026-04-14 11:44 -37.66113 144.82955 405 ft 63 kts 273°
2026-04-14 11:44 -37.66091 144.82476 404 ft 47 kts 273°
2026-04-14 11:44 -37.66148 144.82250 403 ft 25 kts 207°
2026-04-14 11:44 -37.66326 144.82242 389 ft 27 kts 152°
2026-04-14 11:45 -37.66408 144.82440 383 ft 27 kts 101°
2026-04-14 11:45 -37.66438 144.82667 389 ft 25 kts 96°
2026-04-14 11:45 -37.66453 144.82884 391 ft 25 kts 94°
2026-04-14 11:45 -37.66455 144.82931 392 ft 24 kts 94°
2026-04-14 11:46 -37.66467 144.83138 400 ft 22 kts 94°
2026-04-14 11:46 -37.66478 144.83323 403 ft 20 kts 94°
2026-04-14 11:46 -37.66486 144.83463 408 ft 15 kts 94°
2026-04-14 11:46 -37.66494 144.83601 408 ft 17 kts 94°
2026-04-14 11:47 -37.66504 144.83779 408 ft 23 kts 94°
2026-04-14 11:47 -37.66517 144.83989 408 ft 25 kts 94°
2026-04-14 11:47 -37.66529 144.84164 408 ft 0 kts 96°
2026-04-14 11:48 -37.66530 144.84188 408 ft 16 kts 96°
2026-04-14 11:48 -37.66534 144.84296 407 ft 8 kts 89°
2026-04-14 11:48 -37.66565 144.84359 406 ft 9 kts 150°
2026-04-14 11:48 -37.66640 144.84398 400 ft 14 kts 144°
2026-04-14 11:49 -37.66666 144.84498 401 ft 10 kts 99°
2026-04-14 11:49 -37.66707 144.84534 401 ft 11 kts 172°
2026-04-14 11:49 -37.66751 144.84542 399 ft 0 kts 172°